Year,Month,Day,Hour,Minute,Value (Times are PST for temperature in C)
2015,10,24,00,00,1.50
2015,10,24,00,01,1.60
2015,10,24,00,02,1.60
2015,10,24,00,03,1.60
2015,10,24,00,04,1.60
2015,10,24,00,05,1.60
2015,10,24,00,06,1.60
2015,10,24,00,07,1.70
2015,10,24,00,08,1.70
2015,10,24,00,09,1.70
2015,10,24,00,10,1.70
2015,10,24,00,11,1.70
2015,10,24,00,12,1.70
2015,10,24,00,13,1.70
2015,10,24,00,14,1.70
2015,10,24,00,15,1.70
2015,10,24,00,16,1.70
2015,10,24,00,17,1.70
2015,10,24,00,18,1.70
2015,10,24,00,19,1.70
2015,10,24,00,20,1.70
2015,10,24,00,21,1.70
2015,10,24,00,22,1.70
2015,10,24,00,23,1.70
2015,10,24,00,24,1.60
2015,10,24,00,25,1.60
2015,10,24,00,26,1.60
2015,10,24,00,27,1.60
2015,10,24,00,28,1.60
2015,10,24,00,29,1.60
2015,10,24,00,30,1.50
2015,10,24,00,31,1.50
2015,10,24,00,32,1.50
2015,10,24,00,33,1.50
2015,10,24,00,34,1.40
2015,10,24,00,35,1.40
2015,10,24,00,36,1.40
2015,10,24,00,37,1.40
2015,10,24,00,38,1.40
2015,10,24,00,39,1.40
2015,10,24,00,40,1.40
2015,10,24,00,41,1.40
2015,10,24,00,42,1.40
2015,10,24,00,43,1.40
2015,10,24,00,44,1.40
2015,10,24,00,45,1.40
2015,10,24,00,46,1.40
2015,10,24,00,47,1.40
2015,10,24,00,48,1.40
2015,10,24,00,49,1.40
2015,10,24,00,50,1.40
2015,10,24,00,51,1.40
2015,10,24,00,52,1.40
2015,10,24,00,53,1.40
2015,10,24,00,54,1.40
2015,10,24,00,55,1.40
2015,10,24,00,56,1.40
2015,10,24,00,57,1.40
2015,10,24,00,58,1.40
2015,10,24,00,59,1.40
2015,10,24,01,00,1.40
2015,10,24,01,01,1.40
2015,10,24,01,02,1.40
2015,10,24,01,03,1.40
2015,10,24,01,04,1.40
2015,10,24,01,05,1.40
2015,10,24,01,06,1.40
2015,10,24,01,07,1.40
2015,10,24,01,08,1.40
2015,10,24,01,09,1.40
2015,10,24,01,10,1.40
2015,10,24,01,11,1.40
2015,10,24,01,12,1.40
2015,10,24,01,13,1.40
2015,10,24,01,14,1.40
2015,10,24,01,15,1.40
2015,10,24,01,16,1.40
2015,10,24,01,17,1.40
2015,10,24,01,18,1.40
2015,10,24,01,19,1.40
2015,10,24,01,20,1.40
2015,10,24,01,21,1.30
2015,10,24,01,22,1.30
2015,10,24,01,23,1.30
2015,10,24,01,24,1.30
2015,10,24,01,25,1.30
2015,10,24,01,26,1.30
2015,10,24,01,27,1.30
2015,10,24,01,28,1.30
2015,10,24,01,29,1.30
2015,10,24,01,30,1.30
2015,10,24,01,31,1.30
2015,10,24,01,32,1.30
2015,10,24,01,33,1.30
2015,10,24,01,34,1.30
2015,10,24,01,35,1.30
2015,10,24,01,36,1.30
2015,10,24,01,37,1.30
2015,10,24,01,38,1.30
2015,10,24,01,39,1.30
2015,10,24,01,40,1.30
2015,10,24,01,41,1.30
2015,10,24,01,42,1.30
2015,10,24,01,43,1.30
2015,10,24,01,44,1.40
2015,10,24,01,45,1.40
2015,10,24,01,46,1.40
2015,10,24,01,47,1.40
2015,10,24,01,48,1.40
2015,10,24,01,49,1.40
2015,10,24,01,50,1.40
2015,10,24,01,51,1.40
2015,10,24,01,52,1.40
2015,10,24,01,53,1.50
2015,10,24,01,54,1.50
2015,10,24,01,55,1.50
2015,10,24,01,56,1.50
2015,10,24,01,57,1.60
2015,10,24,01,58,1.60
2015,10,24,01,59,1.60
2015,10,24,02,00,1.60
2015,10,24,02,01,1.70
2015,10,24,02,02,1.70
2015,10,24,02,03,1.70
2015,10,24,02,04,1.80
2015,10,24,02,05,1.80
2015,10,24,02,06,1.80
2015,10,24,02,07,1.80
2015,10,24,02,08,1.90
2015,10,24,02,09,1.90
2015,10,24,02,10,1.90
2015,10,24,02,11,2.00
2015,10,24,02,12,2.00
2015,10,24,02,13,2.00
2015,10,24,02,14,2.10
2015,10,24,02,15,2.10
2015,10,24,02,16,2.20
2015,10,24,02,17,2.20
2015,10,24,02,18,2.20
2015,10,24,02,19,2.30
2015,10,24,02,20,2.30
2015,10,24,02,21,2.30
2015,10,24,02,22,2.30
2015,10,24,02,23,2.40
2015,10,24,02,24,2.40
2015,10,24,02,25,2.40
2015,10,24,02,26,2.40
2015,10,24,02,27,2.40
2015,10,24,02,28,2.50
2015,10,24,02,29,2.50
2015,10,24,02,30,2.50
2015,10,24,02,31,2.60
2015,10,24,02,32,2.60
2015,10,24,02,33,2.70
2015,10,24,02,34,2.70
2015,10,24,02,35,2.70
2015,10,24,02,36,2.70
2015,10,24,02,37,2.80
2015,10,24,02,38,2.80
2015,10,24,02,39,2.90
2015,10,24,02,40,2.90
2015,10,24,02,41,2.90
2015,10,24,02,42,3.00
2015,10,24,02,43,3.00
2015,10,24,02,44,3.10
2015,10,24,02,45,3.10
2015,10,24,02,46,3.20
2015,10,24,02,47,3.20
2015,10,24,02,48,3.30
2015,10,24,02,49,3.30
2015,10,24,02,50,3.30
2015,10,24,02,51,3.40
2015,10,24,02,52,3.40
2015,10,24,02,53,3.50
2015,10,24,02,54,3.50
2015,10,24,02,55,3.60
2015,10,24,02,56,3.60
2015,10,24,02,57,3.70
2015,10,24,02,58,3.70
2015,10,24,02,59,3.80
2015,10,24,03,00,3.80
2015,10,24,03,01,3.80
2015,10,24,03,02,3.90
2015,10,24,03,03,3.90
2015,10,24,10,04,4.00
2015,10,24,10,05,4.00
2015,10,24,10,06,4.10
2015,10,24,10,07,4.10
2015,10,24,10,08,4.20
2015,10,24,10,09,4.20
2015,10,24,10,10,4.30
2015,10,24,10,11,4.40
2015,10,24,10,12,4.40
2015,10,24,10,13,4.50
2015,10,24,10,14,4.50
2015,10,24,10,15,4.60
2015,10,24,10,16,4.60
2015,10,24,10,17,4.70
2015,10,24,10,18,4.70
2015,10,24,10,19,4.70
2015,10,24,10,20,4.80
2015,10,24,10,21,4.80
2015,10,24,10,22,4.90
2015,10,24,10,23,4.90
2015,10,24,10,24,5.00
2015,10,24,10,25,5.00
2015,10,24,10,26,5.10
2015,10,24,10,27,5.10
2015,10,24,10,28,5.20
2015,10,24,10,29,5.20
2015,10,24,10,30,5.30
2015,10,24,10,31,5.30
2015,10,24,10,32,5.40
2015,10,24,10,33,5.40
2015,10,24,10,34,5.50
2015,10,24,10,35,5.50
2015,10,24,10,36,5.60
2015,10,24,10,37,5.60
2015,10,24,10,38,5.70
2015,10,24,10,39,5.70
2015,10,24,10,40,5.80
2015,10,24,10,41,5.80
2015,10,24,10,42,5.90
2015,10,24,10,43,6.00
2015,10,24,10,44,6.10
2015,10,24,10,45,6.10
2015,10,24,10,46,6.20
2015,10,24,10,47,6.20
2015,10,24,10,48,6.30
2015,10,24,10,49,6.40
2015,10,24,10,50,6.40
2015,10,24,10,51,6.40
2015,10,24,10,52,6.50
2015,10,24,10,53,6.50
2015,10,24,10,54,6.60
2015,10,24,10,55,6.60
2015,10,24,10,56,6.70
2015,10,24,10,57,6.70
2015,10,24,10,58,6.70
2015,10,24,10,59,6.80
2015,10,24,11,00,6.80
2015,10,24,11,01,6.80
2015,10,24,11,02,6.80
2015,10,24,11,03,6.80
2015,10,24,11,04,6.80
2015,10,24,11,05,6.80
2015,10,24,11,06,6.80
2015,10,24,11,07,6.80
2015,10,24,11,08,6.80
2015,10,24,11,09,6.80
2015,10,24,11,10,6.80
2015,10,24,11,11,6.90
2015,10,24,11,12,6.90
2015,10,24,11,13,6.90
2015,10,24,11,14,7.00
2015,10,24,11,15,7.00
2015,10,24,11,16,7.10
2015,10,24,11,17,7.10
2015,10,24,11,18,7.20
2015,10,24,11,19,7.20
2015,10,24,11,20,7.20
2015,10,24,11,21,7.30
2015,10,24,11,22,7.30
2015,10,24,11,23,7.40
2015,10,24,11,24,7.40
2015,10,24,11,25,7.50
2015,10,24,11,26,7.50
2015,10,24,11,27,7.60
2015,10,24,11,28,7.60
2015,10,24,11,29,7.70
2015,10,24,11,30,7.70
2015,10,24,11,31,7.70
2015,10,24,11,32,7.80
2015,10,24,11,33,7.80
2015,10,24,11,34,7.80
2015,10,24,11,35,7.80
2015,10,24,11,36,7.90
2015,10,24,11,37,7.90
2015,10,24,11,38,7.90
2015,10,24,11,39,7.90
2015,10,24,11,40,7.90
2015,10,24,11,41,8.00
2015,10,24,11,42,8.00
2015,10,24,11,43,8.00
2015,10,24,11,44,8.10
2015,10,24,11,45,8.10
2015,10,24,11,46,8.10
2015,10,24,11,47,8.10
2015,10,24,11,48,8.10
2015,10,24,11,49,8.10
2015,10,24,11,50,8.10
2015,10,24,11,51,8.10
2015,10,24,11,52,8.10
2015,10,24,11,53,8.10
2015,10,24,11,54,8.10
2015,10,24,11,55,8.10
2015,10,24,11,56,8.10
2015,10,24,11,57,8.20
2015,10,24,11,58,8.20
2015,10,24,11,59,8.20
2015,10,24,12,00,8.20
2015,10,24,12,01,8.20
2015,10,24,12,02,8.30
2015,10,24,12,03,8.30
2015,10,24,12,04,8.30
2015,10,24,12,05,8.30
2015,10,24,12,06,8.30
2015,10,24,12,07,8.30
2015,10,24,12,08,8.40
2015,10,24,12,09,8.40
2015,10,24,12,10,8.40
2015,10,24,12,11,8.40
2015,10,24,12,12,8.40
2015,10,24,12,13,8.40
2015,10,24,12,14,8.50
2015,10,24,12,15,8.50
2015,10,24,12,16,8.60
2015,10,24,12,17,8.60
2015,10,24,12,18,8.70
2015,10,24,12,19,8.70
2015,10,24,12,20,8.70
2015,10,24,12,21,8.70
2015,10,24,12,22,8.70
2015,10,24,12,23,8.70
2015,10,24,12,24,8.70
2015,10,24,12,25,8.70
2015,10,24,12,26,8.70
2015,10,24,12,27,8.80
2015,10,24,12,28,8.80
2015,10,24,12,29,8.80
2015,10,24,12,30,8.80
2015,10,24,12,31,8.90
2015,10,24,12,32,8.90
2015,10,24,12,33,8.90
2015,10,24,12,34,8.90
2015,10,24,12,35,8.90
2015,10,24,12,36,9.00
2015,10,24,12,37,9.00
2015,10,24,12,38,9.10
2015,10,24,12,39,9.10
2015,10,24,12,40,9.10
2015,10,24,12,41,9.10
2015,10,24,12,42,9.10
2015,10,24,12,43,9.10
2015,10,24,12,44,9.10
2015,10,24,12,45,9.10
2015,10,24,12,46,9.10
2015,10,24,12,47,9.10
2015,10,24,12,48,9.10
2015,10,24,12,49,9.10
2015,10,24,12,50,9.10
2015,10,24,12,51,9.00
2015,10,24,12,52,9.00
2015,10,24,12,53,9.00
2015,10,24,12,54,9.00
2015,10,24,12,55,9.00
2015,10,24,12,56,9.00
2015,10,24,12,57,9.00
2015,10,24,12,58,9.00
2015,10,24,12,59,9.00
2015,10,24,13,00,9.00
2015,10,24,13,01,9.00
2015,10,24,13,02,9.10
2015,10,24,13,03,9.10
2015,10,24,13,04,9.00
2015,10,24,13,05,9.00
2015,10,24,13,06,9.10
2015,10,24,13,07,9.10
2015,10,24,13,08,9.10
2015,10,24,13,09,9.10
2015,10,24,13,10,9.10
2015,10,24,13,11,9.10
2015,10,24,13,12,9.10
2015,10,24,13,13,9.10
2015,10,24,13,14,9.10
2015,10,24,13,15,9.20
2015,10,24,13,16,9.20
2015,10,24,13,17,9.20
2015,10,24,13,18,9.20
2015,10,24,13,19,9.20
2015,10,24,13,20,9.20
2015,10,24,13,21,9.20
2015,10,24,13,22,9.20
2015,10,24,13,23,9.20
2015,10,24,13,24,9.20
2015,10,24,13,25,9.20
2015,10,24,13,26,9.30
2015,10,24,13,27,9.30
2015,10,24,13,28,9.30
2015,10,24,13,29,9.30
2015,10,24,13,30,9.30
2015,10,24,13,31,9.30
2015,10,24,13,32,9.30
2015,10,24,13,33,9.30
2015,10,24,13,34,9.30
2015,10,24,13,35,9.30
2015,10,24,13,36,9.30
2015,10,24,13,37,9.30
2015,10,24,13,38,9.30
2015,10,24,13,39,9.30
2015,10,24,13,40,9.30
2015,10,24,13,41,9.30
2015,10,24,13,42,9.30
2015,10,24,13,43,9.30
2015,10,24,13,44,9.20
2015,10,24,13,45,9.20
2015,10,24,13,46,9.20
2015,10,24,13,47,9.20
2015,10,24,13,48,9.20
2015,10,24,13,49,9.20
2015,10,24,13,50,9.20
2015,10,24,13,51,9.20
2015,10,24,13,52,9.20
2015,10,24,13,53,9.20
2015,10,24,13,54,9.20
2015,10,24,13,55,9.20
2015,10,24,13,56,9.20
2015,10,24,13,57,9.20
2015,10,24,13,58,9.20
2015,10,24,13,59,9.10
2015,10,24,14,00,9.10
2015,10,24,14,01,9.10
2015,10,24,14,02,9.10
2015,10,24,14,03,9.10
2015,10,24,14,04,9.10
2015,10,24,14,05,9.10
2015,10,24,14,06,9.10
2015,10,24,14,07,9.10
2015,10,24,14,08,9.10
2015,10,24,14,09,9.10
2015,10,24,14,10,9.10
2015,10,24,14,11,9.00
2015,10,24,14,12,9.10
2015,10,24,14,13,9.10
2015,10,24,14,14,9.10
2015,10,24,14,15,9.10
2015,10,24,14,16,9.10
2015,10,24,14,17,9.10
2015,10,24,14,18,9.00
2015,10,24,14,19,9.10
2015,10,24,14,20,9.10
2015,10,24,14,21,9.10
2015,10,24,14,22,9.10
2015,10,24,14,23,9.10
2015,10,24,14,24,9.10
2015,10,24,14,25,9.20
2015,10,24,14,26,9.20
2015,10,24,14,27,9.20
2015,10,24,14,28,9.20
2015,10,24,14,29,9.20
2015,10,24,14,30,9.20
2015,10,24,14,31,9.20
2015,10,24,14,32,9.20
2015,10,24,14,33,9.20
2015,10,24,14,34,9.20
2015,10,24,14,35,9.20
2015,10,24,14,36,9.20
2015,10,24,14,37,9.20
2015,10,24,14,38,9.20
2015,10,24,14,39,9.20
2015,10,24,14,40,9.30
2015,10,24,14,41,9.30
2015,10,24,14,42,9.30
2015,10,24,14,43,9.30
2015,10,24,14,44,9.30
2015,10,24,14,45,9.30
2015,10,24,14,46,9.30
2015,10,24,14,47,9.30
2015,10,24,14,48,9.30
2015,10,24,14,49,9.30
2015,10,24,14,50,9.30
2015,10,24,14,51,9.30
2015,10,24,14,52,9.20
2015,10,24,14,53,9.20
2015,10,24,14,54,9.20
2015,10,24,14,55,9.20
2015,10,24,14,56,9.20
2015,10,24,14,57,9.20
2015,10,24,14,58,9.20
2015,10,24,14,59,9.20
2015,10,24,15,00,9.20
2015,10,24,15,01,9.20
2015,10,24,15,02,9.20
2015,10,24,15,03,9.10
2015,10,24,15,04,9.10
2015,10,24,15,05,9.10
2015,10,24,15,06,9.10
2015,10,24,15,07,9.10
2015,10,24,15,08,9.10
2015,10,24,15,09,9.10
2015,10,24,15,10,9.10
2015,10,24,15,11,9.10
2015,10,24,15,12,9.10
2015,10,24,15,13,9.10
2015,10,24,15,14,9.10
2015,10,24,15,15,9.10
2015,10,24,15,16,9.10
2015,10,24,15,17,9.10
2015,10,24,15,18,9.10
2015,10,24,15,19,9.10
2015,10,24,15,20,9.20
2015,10,24,15,21,9.20
2015,10,24,15,22,9.10
2015,10,24,15,23,9.20
2015,10,24,15,24,9.10
2015,10,24,15,25,9.10
2015,10,24,15,26,9.10
2015,10,24,15,27,9.10
2015,10,24,15,28,9.10
2015,10,24,15,29,9.10
2015,10,24,15,30,9.10
2015,10,24,15,31,9.10
2015,10,24,15,32,9.20
2015,10,24,15,33,9.20
2015,10,24,15,34,9.20
2015,10,24,15,35,9.20
2015,10,24,15,36,9.20
2015,10,24,15,37,9.20
2015,10,24,15,38,9.20
2015,10,24,15,39,9.20
2015,10,24,15,40,9.10
2015,10,24,15,41,9.10
2015,10,24,15,42,9.10
2015,10,24,15,43,9.10
2015,10,24,15,44,9.10
2015,10,24,15,45,9.10
2015,10,24,15,46,9.10
2015,10,24,15,47,9.10
2015,10,24,15,48,9.10
2015,10,24,15,49,9.10
2015,10,24,15,50,9.20
2015,10,24,15,51,9.20
2015,10,24,15,52,9.20
2015,10,24,15,53,9.20
2015,10,24,15,54,9.20
2015,10,24,15,55,9.20
2015,10,24,15,56,9.20
2015,10,24,15,57,9.20
2015,10,24,15,58,9.20
2015,10,24,15,59,9.20
2015,10,24,16,00,9.20
2015,10,24,16,01,9.20
2015,10,24,16,02,9.20
2015,10,24,16,03,9.10
2015,10,24,16,04,9.10
2015,10,24,16,05,9.10
2015,10,24,16,06,9.10
2015,10,24,16,07,9.10
2015,10,24,16,08,9.10
2015,10,24,16,09,9.10
2015,10,24,16,10,9.20
2015,10,24,16,11,9.20
2015,10,24,16,12,9.20
2015,10,24,16,13,9.20
2015,10,24,16,14,9.20
2015,10,24,16,15,9.20
2015,10,24,16,16,9.20
2015,10,24,16,17,9.20
2015,10,24,16,18,9.20
2015,10,24,16,19,9.20
2015,10,24,16,20,9.20
2015,10,24,16,21,9.20
2015,10,24,16,22,9.20
2015,10,24,16,23,9.20
2015,10,24,16,24,9.20
2015,10,24,16,25,9.20
2015,10,24,16,26,9.20
2015,10,24,16,27,9.20
2015,10,24,16,28,9.20
2015,10,24,16,29,9.20
2015,10,24,16,30,9.20
2015,10,24,16,31,9.20
2015,10,24,16,32,9.20
2015,10,24,16,33,9.20
2015,10,24,16,34,9.20
2015,10,24,16,35,9.20
2015,10,24,16,36,9.20
2015,10,24,16,37,9.20
2015,10,24,16,38,9.20
2015,10,24,16,39,9.20
2015,10,24,16,40,9.20
2015,10,24,16,41,9.20
2015,10,24,16,42,9.20
2015,10,24,16,43,9.20
2015,10,24,16,44,9.20
2015,10,24,16,45,9.20
2015,10,24,16,46,9.20
2015,10,24,16,47,9.20
2015,10,24,16,48,9.20
2015,10,24,16,49,9.20
2015,10,24,16,50,9.20
2015,10,24,16,51,9.20
2015,10,24,16,52,9.20
2015,10,24,16,53,9.20
2015,10,24,16,54,9.20
2015,10,24,16,55,9.20
2015,10,24,16,56,9.20
2015,10,24,16,57,9.20
2015,10,24,16,58,9.20
2015,10,24,16,59,9.20
2015,10,24,17,00,9.20
2015,10,24,17,01,9.20
2015,10,24,17,02,9.20
2015,10,24,17,03,9.20
2015,10,24,17,04,9.20
2015,10,24,17,05,9.20
2015,10,24,17,06,9.20
2015,10,24,17,07,9.20
2015,10,24,17,08,9.20
2015,10,24,17,09,9.20
2015,10,24,17,10,9.20
2015,10,24,17,11,9.20
2015,10,24,17,12,9.20
2015,10,24,17,13,9.20
2015,10,24,17,14,9.20
2015,10,24,17,15,9.20
2015,10,24,17,16,9.20
2015,10,24,17,17,9.20
2015,10,24,17,18,9.20
2015,10,24,17,19,9.20
2015,10,24,17,20,9.20
2015,10,24,17,21,9.20
2015,10,24,17,22,9.20
2015,10,24,17,23,9.20
2015,10,24,17,24,9.20
2015,10,24,17,25,9.20
2015,10,24,17,26,9.20
2015,10,24,17,27,9.20
2015,10,24,17,28,9.20
2015,10,24,17,29,9.20
2015,10,24,17,30,9.20
2015,10,24,17,31,9.20
2015,10,24,17,32,9.20
2015,10,24,17,33,9.10
2015,10,24,17,34,9.10
2015,10,24,17,35,9.10
2015,10,24,17,36,9.10
2015,10,24,17,37,9.10
2015,10,24,17,38,9.10
2015,10,24,17,39,9.10
2015,10,24,17,40,9.10
2015,10,24,17,41,9.10
2015,10,24,17,42,9.10
2015,10,24,17,43,9.00
2015,10,24,17,44,9.00
2015,10,24,17,45,9.00
2015,10,24,17,46,9.00
2015,10,24,17,47,9.00
2015,10,24,17,48,9.00
2015,10,24,17,49,9.00
2015,10,24,17,50,9.00
2015,10,24,17,51,9.00
2015,10,24,17,52,8.90
2015,10,24,17,53,8.90
2015,10,24,17,54,8.90
2015,10,24,17,55,8.90
2015,10,24,17,56,8.90
2015,10,24,17,57,8.90
2015,10,24,17,58,8.90
2015,10,24,17,59,8.90
2015,10,24,18,00,8.90
2015,10,24,18,01,8.80
2015,10,24,18,02,8.80
2015,10,24,18,03,8.80
2015,10,24,18,04,8.80
2015,10,24,18,05,8.80
2015,10,24,18,06,8.80
2015,10,24,18,07,8.80
2015,10,24,18,08,8.80
2015,10,24,18,09,8.70
2015,10,24,18,10,8.70
2015,10,24,18,11,8.70
2015,10,24,18,12,8.70
2015,10,24,18,13,8.70
2015,10,24,18,14,8.70
2015,10,24,18,15,8.70
2015,10,24,18,16,8.60
2015,10,24,18,17,8.60
2015,10,24,18,18,8.60
2015,10,24,18,19,8.60
2015,10,24,18,20,8.60
2015,10,24,18,21,8.60
2015,10,24,18,22,8.60
2015,10,24,18,23,8.50
2015,10,24,18,24,8.50
2015,10,24,18,25,8.50
2015,10,24,18,26,8.50
2015,10,24,18,27,8.50
2015,10,24,18,28,8.50
2015,10,24,18,29,8.40
2015,10,24,18,30,8.40
2015,10,24,18,31,8.40
2015,10,24,18,32,8.40
2015,10,24,18,33,8.40
2015,10,24,18,34,8.40
2015,10,24,18,35,8.40
2015,10,24,18,36,8.40
2015,10,24,18,37,8.40
2015,10,24,18,38,8.40
2015,10,24,18,39,8.30
2015,10,24,18,40,8.30
2015,10,24,18,41,8.30
2015,10,24,18,42,8.30
2015,10,24,18,43,8.30
2015,10,24,18,44,8.30
2015,10,24,18,45,8.30
2015,10,24,18,46,8.30
2015,10,24,18,47,8.30
2015,10,24,18,48,8.30
2015,10,24,18,49,8.20
2015,10,24,18,50,8.20
2015,10,24,18,51,8.20
2015,10,24,18,52,8.20
2015,10,24,18,53,8.20
2015,10,24,18,54,8.20
2015,10,24,18,55,8.20
2015,10,24,18,56,8.20
2015,10,24,18,57,8.20
2015,10,24,18,58,8.20
2015,10,24,18,59,8.20
2015,10,24,19,00,8.20
2015,10,24,19,01,8.20
2015,10,24,19,02,8.20
2015,10,24,19,03,8.20
2015,10,24,19,04,8.20
2015,10,24,19,05,8.10
2015,10,24,19,06,8.10
2015,10,24,19,07,8.10
2015,10,24,19,08,8.10
2015,10,24,19,09,8.10
2015,10,24,19,10,8.10
2015,10,24,19,11,8.10
2015,10,24,19,12,8.10
2015,10,24,19,13,8.10
2015,10,24,19,14,8.10
2015,10,24,19,15,8.10
2015,10,24,19,16,8.10
2015,10,24,19,17,8.10
2015,10,24,19,18,8.10
2015,10,24,19,19,8.10
2015,10,24,19,20,8.10
2015,10,24,19,21,8.10
2015,10,24,19,22,8.10
2015,10,24,19,23,8.10
2015,10,24,19,24,8.10
2015,10,24,19,25,8.10
2015,10,24,19,26,8.10
2015,10,24,19,27,8.10
2015,10,24,19,28,8.10
2015,10,24,19,29,8.00
2015,10,24,19,30,8.00
2015,10,24,19,31,8.00
2015,10,24,19,32,8.00
2015,10,24,19,33,8.00
2015,10,24,19,34,8.00
2015,10,24,19,35,8.00
2015,10,24,19,36,8.00
2015,10,24,19,37,8.00
2015,10,24,19,38,8.00
2015,10,24,19,39,8.00
2015,10,24,19,40,7.90
2015,10,24,19,41,7.90
2015,10,24,19,42,7.90
2015,10,24,19,43,7.90
2015,10,24,19,44,7.90
2015,10,24,19,45,7.90
2015,10,24,19,46,7.90
2015,10,24,19,47,7.90
2015,10,24,19,48,7.90
2015,10,24,19,49,7.90
2015,10,24,19,50,7.90
2015,10,24,19,51,7.90
2015,10,24,19,52,7.90
2015,10,24,19,53,7.90
2015,10,24,19,54,7.80
2015,10,24,19,55,7.80
2015,10,24,19,56,7.80
2015,10,24,19,57,7.80
2015,10,24,19,58,7.80
2015,10,24,19,59,7.80
2015,10,24,20,00,7.80
2015,10,24,20,01,7.80
2015,10,24,20,02,7.80
2015,10,24,20,03,7.80
2015,10,24,20,04,7.70
2015,10,24,20,05,7.70
2015,10,24,20,06,7.70
2015,10,24,20,07,7.70
2015,10,24,20,08,7.70
2015,10,24,20,09,7.70
2015,10,24,20,10,7.70
2015,10,24,20,11,7.70
2015,10,24,20,12,7.60
2015,10,24,20,13,7.60
2015,10,24,20,14,7.60
2015,10,24,20,15,7.60
2015,10,24,20,16,7.60
2015,10,24,20,17,7.60
2015,10,24,20,18,7.60
2015,10,24,20,19,7.50
2015,10,24,20,20,7.50
2015,10,24,20,21,7.50
2015,10,24,20,22,7.50
2015,10,24,20,23,7.50
2015,10,24,20,24,7.40
2015,10,24,20,25,7.40
2015,10,24,20,26,7.40
2015,10,24,20,27,7.40
2015,10,24,20,28,7.40
2015,10,24,20,29,7.40
2015,10,24,20,30,7.40
2015,10,24,20,31,7.40
2015,10,24,20,32,7.40
2015,10,24,20,33,7.40
2015,10,24,20,34,7.40
2015,10,24,20,35,7.40
2015,10,24,20,36,7.30
2015,10,24,20,37,7.40
2015,10,24,20,38,7.30
2015,10,24,20,39,7.30
2015,10,24,20,40,7.30
2015,10,24,20,41,7.30
2015,10,24,20,42,7.30
2015,10,24,20,43,7.30
2015,10,24,20,44,7.30
2015,10,24,20,45,7.30
2015,10,24,20,46,7.30
2015,10,24,20,47,7.30
2015,10,24,20,48,7.30
2015,10,24,20,49,7.30
2015,10,24,20,50,7.30
2015,10,24,20,51,7.30
2015,10,24,20,52,7.30
2015,10,24,20,53,7.30
2015,10,24,20,54,7.30
2015,10,24,20,55,7.30
2015,10,24,20,56,7.30
2015,10,24,20,57,7.20
2015,10,24,20,58,7.20
2015,10,24,20,59,7.20
2015,10,24,21,00,7.20
2015,10,24,21,01,7.20
2015,10,24,21,02,7.20
2015,10,24,21,03,7.20
2015,10,24,21,04,7.20
2015,10,24,21,05,7.20
2015,10,24,21,06,7.20
2015,10,24,21,07,7.20
2015,10,24,21,08,7.20
2015,10,24,21,09,7.20
2015,10,24,21,10,7.20
2015,10,24,21,11,7.20
2015,10,24,21,12,7.20
2015,10,24,21,13,7.20
2015,10,24,21,14,7.20
2015,10,24,21,15,7.10
2015,10,24,21,16,7.10
2015,10,24,21,17,7.10
2015,10,24,21,18,7.10
2015,10,24,21,19,7.10
2015,10,24,21,20,7.10
2015,10,24,21,21,7.10
2015,10,24,21,22,7.00
2015,10,24,21,23,7.00
2015,10,24,21,24,7.00
2015,10,24,21,25,7.10
2015,10,24,21,26,7.10
2015,10,24,21,27,7.10
2015,10,24,21,28,7.10
2015,10,24,21,29,7.10
2015,10,24,21,30,7.10
2015,10,24,21,31,7.10
2015,10,24,21,32,7.10
2015,10,24,21,33,7.10
2015,10,24,21,34,7.10
2015,10,24,21,35,7.10
2015,10,24,21,36,7.10
2015,10,24,21,37,7.10
2015,10,24,21,38,7.10
2015,10,24,21,39,7.10
2015,10,24,21,40,7.10
2015,10,24,21,41,7.10
2015,10,24,21,42,7.10
2015,10,24,21,43,7.10
2015,10,24,21,44,7.10
2015,10,24,21,45,7.10
2015,10,24,21,46,7.10
2015,10,24,21,47,7.10
2015,10,24,21,48,7.10
2015,10,24,21,49,7.10
2015,10,24,21,50,7.10
2015,10,24,21,51,7.10
2015,10,24,21,52,7.10
2015,10,24,21,53,7.10
2015,10,24,21,54,7.10
2015,10,24,21,55,7.00
2015,10,24,21,56,7.00
2015,10,24,21,57,7.00
2015,10,24,21,58,7.00
2015,10,24,21,59,7.00
2015,10,24,22,00,7.00
2015,10,24,22,01,7.00
2015,10,24,22,02,7.00
2015,10,24,22,03,7.00
2015,10,24,22,04,7.00
2015,10,24,22,05,7.00
2015,10,24,22,06,7.00
2015,10,24,22,07,7.00
2015,10,24,22,08,7.00
2015,10,24,22,09,7.00
2015,10,24,22,10,7.00
2015,10,24,22,11,7.00
2015,10,24,22,12,7.00
2015,10,24,22,13,7.00
2015,10,24,22,14,7.00
2015,10,24,22,15,7.00
2015,10,24,22,16,6.90
2015,10,24,22,17,6.90
2015,10,24,22,18,6.90
2015,10,24,22,19,6.90
2015,10,24,22,20,6.90
2015,10,24,22,21,6.90
2015,10,24,22,22,6.90
2015,10,24,22,23,6.90
2015,10,24,22,24,6.90
2015,10,24,22,25,6.90
2015,10,24,22,26,6.90
2015,10,24,22,27,6.90
2015,10,24,22,28,6.90
2015,10,24,22,29,6.90
2015,10,24,22,30,6.90
2015,10,24,22,31,6.80
2015,10,24,22,32,6.80
2015,10,24,22,33,6.80
2015,10,24,22,34,6.80
2015,10,24,22,35,6.80
2015,10,24,22,36,6.70
2015,10,24,22,37,6.70
2015,10,24,22,38,6.70
2015,10,24,22,39,6.70
2015,10,24,22,40,6.70
2015,10,24,22,41,6.60
2015,10,24,22,42,6.60
2015,10,24,22,43,6.60
2015,10,24,22,44,6.60
2015,10,24,22,45,6.50
2015,10,24,22,46,6.50
2015,10,24,22,47,6.50
2015,10,24,22,48,6.50
2015,10,24,22,49,6.50
2015,10,24,22,50,6.40
2015,10,24,22,51,6.40
2015,10,24,22,52,6.40
2015,10,24,22,53,6.40
2015,10,24,22,54,6.40
2015,10,24,22,55,6.30
2015,10,24,22,56,6.30
2015,10,24,22,57,6.30
2015,10,24,22,58,6.30
2015,10,24,22,59,6.30
2015,10,24,23,00,6.30
2015,10,24,23,01,6.30
2015,10,24,23,02,6.30
2015,10,24,23,03,6.20
2015,10,24,23,04,6.20
2015,10,24,23,05,6.20
2015,10,24,23,06,6.20
2015,10,24,23,07,6.20
2015,10,24,23,08,6.20
2015,10,24,23,09,6.20
2015,10,24,23,10,6.20
2015,10,24,23,11,6.20
2015,10,24,23,12,6.20
2015,10,24,23,13,6.20
2015,10,24,23,14,6.20
2015,10,24,23,15,6.10
2015,10,24,23,16,6.10
2015,10,24,23,17,6.10
2015,10,24,23,18,6.10
2015,10,24,23,19,6.10
2015,10,24,23,20,6.10
2015,10,24,23,21,6.10
2015,10,24,23,22,6.10
2015,10,24,23,23,6.10
2015,10,24,23,24,6.10
2015,10,24,23,25,6.10
2015,10,24,23,26,6.10
2015,10,24,23,27,6.10
2015,10,24,23,28,6.10
2015,10,24,23,29,6.00
2015,10,24,23,30,6.00
2015,10,24,23,31,6.00
2015,10,24,23,32,6.00
2015,10,24,23,33,6.00
2015,10,24,23,34,6.00
2015,10,24,23,35,6.00
2015,10,24,23,36,6.00
2015,10,24,23,37,6.00
2015,10,24,23,38,6.00
2015,10,24,23,39,6.00
2015,10,24,23,40,6.00
2015,10,24,23,41,6.00
2015,10,24,23,42,6.10
2015,10,24,23,43,6.10
2015,10,24,23,44,6.10
2015,10,24,23,45,6.10
2015,10,24,23,46,6.10
2015,10,24,23,47,6.10
2015,10,24,23,48,6.10
2015,10,24,23,49,6.10
2015,10,24,23,50,6.10
2015,10,24,23,51,6.10
2015,10,24,23,52,6.10
2015,10,24,23,53,6.10
2015,10,24,23,54,6.10
2015,10,24,23,55,6.10
2015,10,24,23,56,6.10
2015,10,24,23,57,6.10
2015,10,24,23,58,6.10
2015,10,24,23,59,6.10
